#timestamp,LO_Frequency,Hit,StdDev 
1645254015.7,286047003.2,N
1645254035.5,286047008.3,N
1645254055.3,286047008.5,N
1645254075.2,286047012.4,N
1645254095.0,286047008.7,N
1645254095.9,286047008.7,N
1645254115.7,286047000.5,N
1645254135.6,286046997.7,N
1645254155.4,286046999.9,N
1645254175.3,286047000.4,N
1645254195.1,286047001.3,N
1645254196.0,286047001.3,N
1645254215.8,286047012.3,N
1645254235.7,286047014.7,N
1645254255.5,286047017.1,Y
1645254275.4,286047008.8,P
1645254295.2,286047008.7,P
1645254315.0,286047005.8,P
1645254315.9,286047005.8,Y
1645254335.8,286046999.9,P
1645254355.6,286047002.7,N
1645254375.4,286047000.2,N
1645254395.3,286046998.5,N
1645254415.1,286046994.2,N
1645254435.9,286046995.7,N
1645254455.7,286046992.2,N
1645254475.5,286046992.0,N
1645254495.4,286046995.4,N
1645254515.2,286046993.4,N
1645254535.0,286046994.0,N
1645254535.9,286046994.0,N
1645254555.8,286046990.9,N
1645254575.6,286046988.1,N
1645254595.5,286046983.8,Y
1645254615.3,286046986.2,P
1645254635.1,286046984.8,P
1645254655.9,286046983.4,P
1645254675.7,286046983.2,Y
1645254695.6,286046997.2,P
1645254715.4,286046996.2,N
1645254735.2,286046996.3,N
1645254755.1,286046995.7,N
1645254756.0,286046995.7,N
1645254775.8,286046996.4,N
1645254795.7,286046991.8,N
1645254815.5,286046993.7,N
1645254835.3,286046997.9,N
1645254855.2,286046998.8,N
1645254875.0,286047013.2,Y
1645254875.9,286047013.2,P
1645254895.8,286047028.5,P
1645254915.6,286047036.3,N
1645254935.4,286047037.3,N
1645254955.3,286047040.6,N
1645254975.1,286047038.8,N
1645254995.8,286047036.7,N
1645255015.7,286047033.6,N
1645255035.5,286047029.0,N
1645255055.4,286047024.6,N
1645255075.2,286047021.5,N
1645255095.0,286047022.3,N
1645255095.9,286047022.3,N
1645255115.8,286047033.1,N
1645255135.6,286047040.7,Y
1645255155.4,286047012.5,P
1645255175.3,286047012.7,N
1645255195.1,286047012.0,N
1645255215.9,286047011.7,N
1645255235.7,286047006.1,N
1645255255.5,286047007.1,N
1645255275.4,286047001.7,N
1645255295.2,286046997.3,N
1645255315.0,286046991.7,N
1645255315.9,286046991.7,N
1645255335.8,286046991.9,N
1645255355.6,286046992.5,N
1645255375.5,286046996.8,N
1645255395.3,286046995.7,N
1645255415.1,286046992.4,N
1645255435.9,286047008.9,N
1645255455.7,286047006.4,N
1645255475.5,286046999.9,N
1645255495.4,286046997.9,N
1645255515.2,286047003.2,N
1645255535.1,286047004.7,N
1645255536.0,286047004.7,N
1645255555.8,286047001.5,N
1645255575.6,286047001.9,N
1645255595.5,286047008.7,N
1645255615.3,286047004.3,N
1645255635.2,286047002.2,N
1645255655.9,286046999.8,N
1645255675.7,286046995.4,N
1645255695.6,286046994.3,N
1645255715.4,286046996.1,N
1645255735.2,286046994.1,N
1645255755.1,286046994.2,N
1645255756.0,286046994.2,N
1645255775.8,286046996.6,N
1645255795.7,286047003.6,N
1645255815.5,286047001.7,N
1645255835.3,286047000.1,N
1645255855.2,286047001.2,N
1645255875.0,286047015.6,Y
1645255875.9,286047015.6,P
1645255895.8,286047022.2,N
1645255915.6,286047041.2,P
1645255935.4,286047061.7,Y
1645255955.3,286047065.1,P
1645255975.1,286047073.4,P
1645255995.8,286047067.2,N
1645256015.7,286047090.4,Y
1645256035.5,286047047.8,P
1645256055.4,286047063.4,P
1645256075.2,286047057.6,P
1645256095.0,286047049.4,Y
1645256096.0,286047049.4,P
1645256115.8,286046991.5,N
1645256135.6,286046982.0,N
1645256155.5,286046990.3,N
1645256175.3,286046986.2,N
1645256195.1,286046976.5,N
1645256215.9,286046966.0,N
1645256235.7,286046951.9,N
1645256255.6,286046942.8,N
1645256275.4,286046936.8,N
1645256295.2,286046929.6,N
1645256315.1,286046952.2,N
1645256316.0,286046952.2,N
1645256335.8,286046976.9,N
1645256355.7,286046985.0,N
1645256375.5,286046988.1,N
1645256395.3,286046992.9,N
1645256415.2,286046996.4,N
1645256435.0,286046978.9,N
1645256435.9,286046978.9,N
1645256455.8,286046970.0,N
1645256475.6,286046959.7,N
1645256495.5,286046948.7,N
1645256515.3,286046939.9,N
1645256535.1,286046932.6,N
1645256555.9,286046929.2,N
1645256575.7,286046924.2,N
1645256595.6,286046922.3,N
1645256615.4,286046935.3,N
1645256635.2,286046932.8,N
1645256655.1,286046928.3,N
1645256656.0,286046928.3,N
1645256675.8,286046944.3,N
1645256695.6,286046945.1,N
1645256715.5,286046944.5,N
1645256735.3,286046941.7,N
1645256755.2,286046946.7,N
1645256775.9,286046955.2,N
1645256795.7,286046956.8,N
1645256815.6,286046951.6,N
1645256835.4,286046943.2,N
1645256855.2,286046935.9,Y
1645256875.1,286046986.6,P
1645256876.0,286046986.6,N
1645256895.8,286046988.5,N
1645256915.7,286046986.3,N
1645256935.5,286046983.0,N
1645256955.3,286046977.9,N
1645256975.2,286046980.9,N
1645256995.0,286046979.1,N
1645256995.9,286046979.1,N
1645257015.7,286046980.5,N
1645257035.6,286046979.8,N
1645257055.4,286046976.7,N
1645257075.3,286046973.0,Y
1645257095.1,286046999.9,P
1645257115.8,286047004.5,N
1645257135.7,286047012.7,N
1645257155.5,286047022.5,N
1645257175.4,286047022.0,N
1645257195.2,286047010.8,N
1645257215.0,286047005.7,N
1645257215.9,286047005.7,N
1645257235.8,286046999.2,N
1645257255.6,286046993.6,N
1645257275.4,286046986.2,N
1645257295.3,286046979.6,N
1645257315.1,286046976.3,N
1645257335.9,286046978.5,N
1645257355.7,286046992.1,N
1645257375.5,286047004.5,N
1645257395.4,286047017.2,N
1645257415.2,286047030.1,N
1645257435.0,286047037.1,N
1645257435.9,286047037.1,N
1645257455.8,286047042.6,N
1645257475.6,286047053.5,N
1645257495.5,286047054.6,N
1645257515.3,286047049.3,N
1645257535.1,286047063.0,N
1645257555.9,286047070.0,N
1645257575.7,286047060.9,N
1645257595.5,286047061.2,N
